Location: Newark
(35.2672°N, 80.7344°W)
Time: 02:04:08
(UTC+00:00)

A-11 Canister half - Pass Details

Date: 01 February 2020
Orbit: 1524 x 1684 km, 47.3° (Epoch: 25 February)

Event Time Altitude Azimuth Distance (km) Brightness Sun altitude
Rises 00:07:56 0° 286° (WNW) 4,681 12.7 -16.2°
Reaches altitude 10° 00:11:16 10° 294° (WNW) 3,708 11.8 -16.9°
Maximum altitude 00:19:56 40° 2° (N) 2,168 9.7 -18.6°
Enters shadow 00:25:16 23° 55° (NE) 2,883 9.9 -19.7°
